sat.trackr.live / text

‹ back to catalog

STARLINK-37993

NORAD 69976 · 2026-159B

PAYLOAD ACTIVE UNKNOWN

§ Identity

Operator
Country
US
Launch date
2026-07-11
Launch site
AFWTR
Launch vehicle
Mass (kg)
RCS (m²)

Purposes: comms

External: N2YO · Heavens-Above · Gunter

§ Orbital elements

Epoch: 2026-09-19T00:00:02.000160Z

Period
92.95 min
Inclination
97.2856°
Eccentricity
0.0001437
Mean motion
15.49152874 rev/d
Perigee alt
418.2 km
Apogee alt
420.2 km
Semi-major
6,797.3 km
B*
1.7712e-3
RAAN
103.7622°
Arg perigee
105.0752°
Mean anomaly
204.0263°
Rev number
601

§ Raw data

STARLINK-379931 69976U 26159B   26262.00002315  .00097315  00000+0  17712-2 0  99932 69976  97.2856 103.7622 0001437 105.0752 204.0263 15.49152874  6012

JSON: /api/v1/satellites/69976 · /tle

For live sub-satellite position, see the globe view (requires WebGL).

§ Visibility from observer

Set your observer location to see the next 7 days of passes ≥ 10°. The values pass through the URL so the page stays shareable.

No JS? Fill the form by hand. The geolocation button needs JavaScript.